Location: Newark
(43.4306°N, 0.3089°E)
Time: 04:05:06
(UTC+00:00)

Vanguard 3 - Pass Details

Date: 29 August 2019
Orbit: 508 x 3263 km, 33.4° (Epoch: 21 September)

Event Time Altitude Azimuth Distance (km) Brightness Sun altitude
Rises 14:17:55 0° 231° (SW) 6,579 12.6 44.6°
Reaches altitude 10° 14:23:20 10° 224° (SW) 5,163 12.3 43.8°
Maximum altitude 14:35:04 34° 167° (SSE) 2,576 10.3 42.0°
Drops below altitude 10° 14:42:20 10° 105° (ESE) 3,184 10.0 40.9°
Sets 14:44:51 0° 96° (E) 3,848 10.2 40.5°
